Theta_e
334 340 348 352 350 350 350 350 349 349 349 349 350 350 350 348 348 347 346 348 349 347 345 344 343 343 343 343 341 339 339 338 339 341 344 348 349 351 350 349 348 347 351
335 339 347 352 352 350 351 350 351 350 350 349 349 347 347 346 345 345 345 348 347 345 343 342 340 338 338 339 337 336 335 333 334 336 339 349 350 348 347 346 347 347 349
333 340 347 349 352 351 350 350 348 349 349 349 347 346 343 341 340 341 341 342 345 344 342 339 336 335 335 335 333 331 331 329 330 333 339 346 348 348 346 345 345 345 347
334 341 345 346 351 352 351 350 348 348 350 348 347 345 342 339 339 338 337 338 339 339 338 336 334 331 331 329 327 328 327 327 329 332 339 342 344 346 345 344 343 343 344
335 339 342 345 349 351 351 350 350 349 350 349 346 343 340 337 337 337 337 336 337 336 335 330 327 326 325 324 324 324 324 325 324 334 337 342 342 346 345 343 341 342 344
335 338 340 345 349 350 350 350 349 349 350 349 346 342 340 338 336 335 335 336 335 334 330 326 323 323 322 321 320 320 319 319 325 330 334 338 342 344 344 343 342 342 342
335 339 341 344 347 349 349 349 349 350 349 346 344 341 340 337 335 332 332 334 331 328 325 323 323 321 320 319 317 316 315 315 323 326 330 335 337 338 338 337 337 338 338
335 338 340 338 341 344 347 347 348 347 345 342 341 339 338 336 333 330 330 329 327 324 323 323 322 320 319 317 316 313 312 311 318 322 326 330 332 333 333 332 332 332 334
336 337 338 339 341 335 339 340 341 342 340 339 339 338 336 334 330 328 328 326 324 323 324 322 320 318 317 315 313 310 309 307 313 317 319 325 325 328 328 328 328 329 329
334 335 336 338 339 341 342 333 335 337 337 336 336 334 331 329 328 327 325 325 324 323 321 320 318 316 314 311 308 306 304 305 308 310 315 317 319 324 324 325 325 326 326
328 332 335 335 335 338 336 333 330 331 331 332 331 328 325 328 325 323 322 325 324 321 319 318 315 313 310 307 305 302 300 304 304 307 310 312 316 318 320 321 322 323 324
324 327 330 332 332 335 332 333 333 334 334 332 331 329 329 325 323 321 319 322 323 320 316 315 312 306 302 303 302 300 303 302 303 304 307 308 312 314 316 318 320 321 323
323 325 326 328 331 332 331 331 332 332 333 331 330 329 325 322 319 319 319 320 320 314 313 311 306 302 301 303 302 302 302 302 302 302 302 304 308 312 314 316 319 322 322
320 322 324 325 327 329 331 329 330 327 330 327 328 325 321 318 317 316 317 317 316 313 310 306 302 302 301 300 301 300 301 301 301 301 301 303 307 310 313 318 320 320 321
316 319 321 323 324 326 327 327 328 328 327 326 326 321 319 317 315 314 314 314 313 310 307 302 301 300 300 299 299 299 299 300 299 300 303 303 307 311 316 318 319 320 321
314 316 319 320 322 323 324 325 325 325 326 325 323 320 317 315 313 311 311 310 309 306 303 301 300 300 299 299 298 298 298 299 299 299 302 305 306 311 314 317 319 320 323
311 313 315 317 319 320 321 323 323 322 323 322 320 318 315 313 310 309 309 307 305 302 301 300 299 299 298 297 297 297 297 298 298 298 300 304 309 310 316 316 317 321 319
310 310 312 313 315 318 319 320 320 321 319 319 318 316 313 310 308 306 306 305 302 300 299 298 297 297 297 297 297 297 297 298 298 299 300 303 309 310 309 311 313 316 316
310 309 309 311 312 314 317 318 318 318 317 316 316 314 311 309 306 304 304 303 300 298 298 298 297 297 296 296 295 296 297 297 297 297 300 304 305 306 306 302 301 303 304
309 309 309 308 310 312 314 315 316 315 315 315 314 313 311 307 305 303 302 302 299 298 297 297 296 296 297 296 291 293 296 296 297 297 299 300 299 297 298 298 299 297 298
307 307 307 306 306 308 309 310 311 310 311 311 312 311 309 307 304 303 302 300 298 297 297 296 296 294 294 295 294 293 293 294 293 295 298 297 295 295 295 296 297 297 296
305 305 305 305 305 305 307 309 309 308 309 309 310 309 308 306 304 302 301 300 298 297 297 296 295 294 295 294 294 294 291 291 292 292 294 294 294 294 293 292 293 293 295
303 303 302 303 304 304 305 306 306 304 305 304 305 305 304 304 303 301 301 300 298 298 296 296 295 295 293 293 294 296 291 293 291 291 291 292 292 292 292 292 291 292 293
300 301 301 302 302 301 302 303 303 301 300 302 302 303 303 302 302 301 300 300 299 297 297 297 296 296 297 292 292 291 293 295 292 288 291 291 291 290 291 291 291 291 292
298 298 299 300 300 300 300 301 301 301 302 303 302 302 301 300 300 300 299 299 298 297 297 297 295 295 296 296 293 291 291 291 292 294 289 288 290 291 292 291 291 291 291
295 296 297 297 296 298 299 299 300 299 299 300 298 298 299 298 298 298 298 298 298 297 296 296 296 295 295 295 296 294 292 291 290 291 291 290 289 290 290 290 289 290 291
Wind_Speed
12 14 15 16 16 14 13 13 12 11 10 10 10 10 10 11 10 9 8 9 11 11 11 9 9 10 8 11 9 8 9 9 9 10 9 11 7 12 13 11 9 11 12
15 16 14 15 16 15 14 13 12 12 12 10 10 10 9 9 9 10 10 10 10 10 10 9 8 6 5 8 6 7 7 7 8 9 6 10 12 13 13 12 11 10 12
15 16 17 13 17 16 14 13 11 11 13 12 12 12 6 6 6 6 7 8 10 11 9 9 7 5 6 6 5 5 6 5 6 6 3 6 9 11 12 12 11 11 12
15 15 17 12 14 15 15 14 13 11 12 12 12 12 9 5 5 4 3 4 5 6 8 8 6 5 5 5 5 5 5 5 6 2 3 5 6 9 11 11 11 11 10
14 13 13 13 14 14 16 14 13 13 13 13 12 10 7 6 6 5 4 4 5 5 6 6 5 5 5 5 5 5 5 6 4 1 5 3 3 9 10 9 10 11 11
13 13 10 11 13 13 14 14 13 13 15 14 12 11 9 7 6 5 4 5 6 7 6 6 6 6 5 6 5 6 6 6 3 5 5 4 9 10 12 12 12 11 11
15 13 12 10 12 13 14 14 13 14 13 12 12 10 10 8 7 7 7 7 7 7 7 7 8 7 7 7 7 6 7 6 4 5 5 5 7 6 7 8 10 8 9
15 14 13 11 8 8 9 12 12 13 13 10 8 8 10 9 10 9 9 8 8 8 8 8 7 7 7 7 8 8 8 4 4 5 5 5 7 8 7 7 7 7 7
13 13 13 14 12 9 9 8 8 9 8 9 10 11 9 10 11 10 10 10 10 9 9 8 8 8 7 8 9 9 9 6 5 4 4 3 7 6 5 5 6 6 7
12 13 14 13 14 14 13 10 9 8 10 8 10 9 9 8 7 8 7 10 10 10 10 9 9 8 8 8 8 7 7 3 5 4 4 5 5 5 5 5 5 5 6
12 14 14 14 14 15 13 10 8 9 8 11 9 9 9 9 10 10 8 9 11 10 10 9 8 8 8 8 7 5 1 3 4 3 3 6 4 4 3 3 4 5 6
17 17 15 15 15 15 11 13 10 11 12 9 9 11 11 10 9 8 7 7 9 9 10 9 8 7 5 3 4 3 3 3 3 2 4 5 4 2 2 3 4 5 7
16 14 18 16 16 16 13 11 8 8 9 8 13 13 12 9 8 8 7 7 8 8 6 7 6 4 3 2 3 2 3 2 2 2 4 4 2 0 2 3 4 7 7
16 18 17 18 16 17 11 11 11 10 10 8 12 15 11 8 9 9 7 9 8 7 6 5 3 3 3 2 2 3 3 1 1 1 3 4 4 2 4 6 7 6 7
17 17 18 18 18 17 17 13 13 12 11 12 13 14 11 11 10 10 9 9 8 7 7 6 5 5 4 3 1 1 2 1 1 0 1 4 5 3 5 6 8 8 9
16 18 16 19 19 17 16 17 13 12 13 13 12 13 16 11 11 11 10 9 8 7 6 6 6 5 5 4 4 3 3 2 2 2 2 3 5 4 5 6 8 9 13
15 15 19 20 20 21 21 18 14 12 12 13 13 16 16 14 13 12 10 9 8 7 8 6 6 5 5 4 4 3 3 2 3 4 3 3 4 4 4 5 7 10 12
15 16 17 14 19 21 20 16 13 13 13 12 12 12 17 16 15 13 11 10 9 8 8 7 7 6 5 4 4 3 2 2 2 3 3 4 4 5 8 10 7 5 10
15 15 16 17 19 20 19 14 14 16 13 13 12 12 16 17 17 13 11 10 11 9 8 8 8 8 6 5 4 3 2 3 3 3 5 5 5 4 4 9 12 11 7
12 12 13 12 15 16 12 13 12 12 13 13 13 13 17 14 17 14 11 12 11 9 8 8 9 7 6 6 5 3 2 2 2 4 5 5 5 5 4 4 2 4 6
7 8 9 11 12 11 11 12 12 13 12 13 13 17 17 16 19 16 11 12 12 12 12 12 8 10 6 7 7 4 3 3 4 3 4 5 5 5 4 3 2 2 2
10 8 7 8 9 11 9 9 10 9 11 11 11 13 15 17 17 15 15 14 16 12 14 15 13 9 7 10 6 5 5 4 4 5 5 5 6 4 4 4 3 3 2
16 14 10 7 7 8 11 8 8 6 8 8 10 10 12 16 16 17 17 14 14 12 12 14 15 16 10 10 11 4 4 5 7 6 8 7 8 5 4 5 4 5 5
16 15 14 10 5 4 8 9 12 10 10 9 9 10 11 15 17 17 16 15 15 12 12 12 12 12 11 10 7 7 4 1 5 6 6 9 9 8 7 5 5 6 7
19 19 17 15 10 5 5 9 7 11 9 8 6 10 13 12 16 16 16 16 15 12 13 14 14 14 11 9 9 6 7 4 4 2 5 7 8 9 7 7 6 6 7
20 19 17 16 15 12 6 6 8 9 10 8 8 6 7 9 11 16 16 16 15 14 15 14 14 15 13 10 10 9 8 7 8 5 3 6 8 8 7 6 6 7 7
Wind_Direction
192 173 172 177 173 170 167 163 158 153 151 147 140 119 107 108 106 103 107 111 97 94 92 86 78 72 69 70 69 54 46 49 45 43 59 78 88 93 80 53 41 58 47
165 176 174 178 173 173 170 165 162 164 152 153 137 122 115 113 110 107 88 117 120 115 107 96 87 97 88 71 67 63 55 48 49 41 11 91 86 86 81 72 51 64 54
167 172 177 180 174 172 172 163 166 166 163 165 148 133 151 136 130 129 107 107 110 112 104 99 93 78 76 71 60 64 71 65 62 54 17 83 94 86 80 74 67 61 58
170 173 178 176 176 174 173 171 173 180 176 169 155 144 151 141 150 157 141 141 128 107 96 93 94 86 77 70 49 50 59 58 61 356 105 93 93 94 87 79 72 62 67
174 179 181 172 181 182 177 178 180 185 180 178 169 149 147 184 181 172 166 161 132 113 98 105 102 105 95 78 63 58 66 65 43 74 79 74 123 96 97 90 89 76 54
179 183 170 187 186 184 178 183 186 191 193 185 162 145 159 167 179 190 178 182 158 131 129 125 124 107 87 80 69 65 61 54 305 70 68 70 61 90 85 89 84 77 71
178 184 183 190 199 197 186 192 193 193 184 162 137 158 166 172 185 190 188 156 146 147 145 145 128 123 113 97 87 84 72 57 78 77 71 58 66 74 81 74 70 67 73
183 181 184 178 172 165 189 199 195 192 173 148 152 182 170 177 192 194 187 168 166 160 155 141 130 122 114 109 99 90 77 50 102 84 78 68 32 71 84 85 81 72 69
189 190 191 191 186 178 171 170 174 179 168 160 188 190 181 192 194 193 185 180 174 164 149 145 134 125 117 103 92 81 76 57 94 82 83 71 15 61 61 69 70 71 71
196 201 201 201 201 197 191 182 187 204 176 195 182 170 175 175 189 191 177 186 177 162 158 151 140 129 115 106 100 92 83 72 75 84 71 46 14 49 55 59 62 70 76
207 209 206 206 207 206 204 201 192 197 181 171 173 164 159 202 196 186 195 173 174 167 157 150 136 122 107 92 83 82 294 70 77 56 52 12 23 52 58 64 78 80 80
208 205 207 209 208 208 202 207 210 209 208 196 182 182 196 200 197 198 182 197 160 161 160 155 140 135 187 151 125 161 73 83 72 70 63 3 5 43 77 84 92 100 95
215 206 205 204 207 206 204 203 205 211 206 195 195 195 194 191 184 191 184 184 176 169 172 164 156 188 158 157 136 120 109 116 93 81 58 347 325 181 129 139 133 106 108
220 215 207 207 204 205 205 206 206 201 203 192 199 195 187 190 191 190 191 186 183 185 174 175 172 150 135 91 87 110 101 94 92 93 94 329 304 226 179 162 129 133 122
225 219 213 206 208 205 204 205 208 209 204 200 202 197 193 194 192 190 193 189 188 181 182 178 168 163 154 134 125 132 110 90 71 143 115 338 317 233 174 147 146 133 134
229 225 214 212 212 209 210 212 207 208 203 203 204 200 200 197 193 192 191 193 188 188 182 180 172 169 166 165 166 175 166 188 176 169 163 131 318 333 173 149 152 144 110
232 230 219 213 209 210 210 212 209 210 208 204 205 202 198 198 196 194 191 191 189 186 178 173 167 171 174 174 172 179 173 179 173 160 169 153 145 16 56 129 136 151 129
233 225 222 211 211 212 212 209 206 207 206 209 208 203 199 198 197 195 193 194 184 181 182 181 175 177 182 183 175 163 192 174 154 158 163 162 148 121 69 57 66 73 109
243 235 226 217 218 218 220 216 213 212 209 209 209 207 202 200 197 196 197 193 180 183 187 184 183 188 178 173 162 153 148 149 155 174 153 151 116 128 121 68 57 50 62
260 248 239 227 223 219 218 218 217 217 215 214 208 207 201 198 197 199 197 188 183 185 190 191 185 183 183 166 148 135 133 157 163 178 162 149 129 128 131 133 139 75 44
282 263 245 231 221 212 211 212 218 222 220 218 214 209 205 198 194 196 196 191 188 189 188 189 180 176 173 171 140 131 126 181 203 192 186 165 157 165 152 160 163 162 111
359 340 303 259 231 218 220 220 221 223 232 236 227 223 212 205 199 196 192 191 190 188 191 187 182 174 182 186 185 159 179 184 209 211 198 192 183 181 181 182 160 166 178
16 10 357 315 266 234 224 220 225 256 237 224 228 227 220 213 204 201 199 191 192 194 191 189 187 184 178 191 208 215 167 214 157 182 205 198 192 197 185 174 178 165 169
16 15 10 4 344 266 232 226 221 230 236 230 225 224 222 221 215 208 203 203 196 193 197 192 193 197 185 180 198 233 269 61 190 173 212 205 200 199 199 195 190 181 175
24 22 13 17 22 354 257 239 242 252 261 253 250 223 211 214 223 219 214 207 202 205 203 197 193 197 199 194 195 167 205 205 244 199 164 189 217 217 206 200 185 186 184
27 24 24 28 26 9 347 290 257 259 267 263 249 238 221 216 215 214 212 209 207 205 203 200 199 202 201 206 199 195 183 177 191 188 169 172 197 193 206 199 202 189 182